Weather History for PHSF - September, 2013

Change the Weather History Date:

Tuesday, September 17, 2013

  Actual Average (PHTO) Record (PHTO)
Temperature  
Mean Temperature 60 °F 76 °F  
Max Temperature 71 °F 83 °F 89 °F (1995)
Min Temperature 48 °F 69 °F 63 °F (1964)
Degree Days  
Heating Degree Days 6 0  
Month to date heating degree days 0  
Since 1 July heating degree days 0  
Cooling Degree Days 0 11  
Month to date cooling degree days 187  
Year to date cooling degree days 2259  
Growing Degree Days 10 (Base 50)    
Moisture  
Dew Point 49 °F    
Average Humidity 61    
Maximum Humidity 90    
Minimum Humidity 35    
Precipitation  
Precipitation 0.00 in 0.34 in 2.73 in (1994)
Month to date precipitation 5.45  
Year to date precipitation 85.39  
Snow  
Snow 0.00 in - - ()
Month to date snowfall  
Since 1 July snowfall  
Since 1 September snowfall  
Snow Depth -    
Sea Level Pressure  
Sea Level Pressure 30.30 in    
Wind  
Wind Speed 11 mph (SSE)    
Max Wind Speed 22 mph    
Max Gust Speed 37 mph    
Visibility 11 miles    
Events      
T = Trace of Precipitation, MM = Missing Value Source: NWS Daily Summary

Daily Weather History Graph

Daily Weather History Graph

Search for Another Location

Airport or City:

Trip Planner

Search our weather history database for the weather conditions in past years. The results will help you decide how hot, cold, wet, or windy it might be!

Date:

Astronomy

Sep. 17, 2013 Rise Set
Actual Time 6:10 AM HST 6:22 PM HST
Civil Twilight 5:48 AM HST 6:44 PM HST
Nautical Twilight 5:22 AM HST 7:10 PM HST
Astronomical Twilight 4:56 AM HST 7:35 PM HST
Moon 5:11 PM HST (9/17) 4:26 AM HST (9/17)
Length of Visible Light 12h 56m
Length of Day
12h 12m
Waxing Gibbous, 97% of the Moon is Illuminated
Sep 17
Waxing Gibbous
Sep 19
Full
Sep 26
Last Quarter
Oct 4
New
Oct 11
First Quarter

Hourly Weather History & Observations

Time (HST) Temp. Dew Point Humidity Pressure Visibility Wind Dir Wind Speed Gust Speed Precip Events Conditions
12:56 AM 49.6 °F 45.0 °F 84% 30.33 in 12.0 mi NNE 2.3 mph - N/A   Clear
1:56 AM 51.1 °F 48.4 °F 90% 30.31 in 10.0 mi North 6.9 mph - N/A   Clear
2:56 AM 48.6 °F 42.4 °F 79% 30.29 in 12.0 mi ESE 2.3 mph - N/A   Clear
3:56 AM 48.9 °F 42.6 °F 79% 30.27 in 12.0 mi SSE 4.6 mph - N/A   Clear
4:56 AM 48.4 °F 39.4 °F 71% 30.27 in 12.0 mi SE 4.6 mph - N/A   Clear
5:56 AM 52.2 °F 41.7 °F 68% 30.28 in 7.0 mi North 4.6 mph - N/A   Clear
6:56 AM 54.7 °F 45.3 °F 71% 30.29 in 11.0 mi ESE 6.9 mph - N/A   Partly Cloudy
7:56 AM 60.4 °F 50.7 °F 70% 30.31 in 12.0 mi WSW 5.8 mph - N/A   Clear
8:56 AM 61.5 °F 52.2 °F 71% 30.32 in 12.0 mi SSE 10.4 mph 23.0 mph N/A   Clear
9:15 AM 62.6 °F 51.8 °F 68% 30.33 in 12.0 mi SE 13.8 mph 27.6 mph N/A   Partly Cloudy
9:16 AM 62.6 °F 51.8 °F 68% 30.33 in 12.0 mi ESE 12.7 mph 27.6 mph N/A   Partly Cloudy
9:18 AM 64.4 °F 51.8 °F 64% 30.33 in 12.0 mi South 16.1 mph 27.6 mph N/A   Clear
9:20 AM 64.4 °F 51.8 °F 64% 30.33 in 12.0 mi South 11.5 mph 24.2 mph N/A   Clear
9:56 AM 65.3 °F 50.7 °F 59% 30.34 in 12.0 mi SSE 10.4 mph 25.3 mph N/A   Clear
10:12 AM 62.6 °F 51.8 °F 68% 30.33 in 12.0 mi SE 15.0 mph 29.9 mph N/A   Clear
10:16 AM 64.4 °F 51.8 °F 64% 30.33 in 12.0 mi South 20.7 mph 31.1 mph N/A   Clear
10:17 AM 64.4 °F 53.6 °F 68% 30.34 in 12.0 mi South 17.3 mph 31.1 mph N/A   Clear
10:23 AM 64.4 °F 51.8 °F 64% 30.33 in 12.0 mi SSE 18.4 mph 31.1 mph N/A   Clear
10:47 AM 66.2 °F 51.8 °F 60% 30.32 in 12.0 mi SSE 16.1 mph 29.9 mph N/A   Partly Cloudy
10:50 AM 68.0 °F 51.8 °F 56% 30.31 in 12.0 mi SE 19.6 mph 29.9 mph N/A   Partly Cloudy
10:56 AM 66.6 °F 50.7 °F 57% 30.32 in 11.0 mi SE 10.4 mph 29.9 mph N/A   Partly Cloudy
11:08 AM 66.2 °F 53.6 °F 64% 30.32 in 9.0 mi South 18.4 mph 35.7 mph N/A   Partly Cloudy
11:20 AM 64.4 °F 51.8 °F 64% 30.32 in 12.0 mi South 13.8 mph 35.7 mph N/A   Clear
11:22 AM 64.4 °F 51.8 °F 64% 30.31 in 12.0 mi SSE 15.0 mph 35.7 mph N/A   Clear
11:23 AM 66.2 °F 51.8 °F 60% 30.31 in 12.0 mi SE 17.3 mph 35.7 mph N/A   Clear
11:26 AM 68.0 °F 51.8 °F 56% 30.32 in 12.0 mi South 16.1 mph 32.2 mph N/A   Partly Cloudy
11:27 AM 68.0 °F 51.8 °F 56% 30.32 in 12.0 mi South 16.1 mph 32.2 mph N/A   Partly Cloudy
11:41 AM 66.2 °F 50.0 °F 56% 30.32 in 12.0 mi SSW 13.8 mph 29.9 mph N/A   Partly Cloudy
11:42 AM 66.2 °F 51.8 °F 60% 30.31 in 12.0 mi SSE 15.0 mph 29.9 mph N/A   Partly Cloudy
11:56 AM 67.5 °F 50.2 °F 54% 30.32 in 12.0 mi South 11.5 mph 33.4 mph N/A   Scattered Clouds
11:57 AM 66.2 °F 51.8 °F 60% 30.31 in 12.0 mi SSW 18.4 mph 36.8 mph N/A   Scattered Clouds
12:07 PM 68.0 °F 50.0 °F 52% 30.31 in 12.0 mi SSW 19.6 mph 29.9 mph N/A   Scattered Clouds
12:09 PM 69.8 °F 50.0 °F 49% 30.30 in 12.0 mi SSE 19.6 mph 29.9 mph N/A   Scattered Clouds
12:14 PM 69.8 °F 50.0 °F 49% 30.30 in 12.0 mi SE 21.9 mph 31.1 mph N/A   Partly Cloudy
12:15 PM 69.8 °F 50.0 °F 49% 30.30 in 12.0 mi SE 21.9 mph 31.1 mph N/A   Partly Cloudy
12:25 PM 68.0 °F 50.0 °F 52% 30.30 in 12.0 mi SE 20.7 mph 35.7 mph N/A   Partly Cloudy
12:27 PM 68.0 °F 50.0 °F 52% 30.31 in 12.0 mi South 18.4 mph 35.7 mph N/A   Partly Cloudy
12:37 PM 68.0 °F 50.0 °F 52% 30.31 in 12.0 mi South 15.0 mph 28.8 mph N/A   Partly Cloudy
12:39 PM 69.8 °F 50.0 °F 49% 30.30 in 12.0 mi SE 18.4 mph 28.8 mph N/A   Partly Cloudy
12:57 PM 68.4 °F 49.1 °F 50% 30.30 in 12.0 mi South 13.8 mph 31.1 mph N/A   Scattered Clouds
1:24 PM 71.6 °F 48.2 °F 43% 30.29 in 12.0 mi South 15.0 mph 29.9 mph N/A   Partly Cloudy
1:26 PM 69.8 °F 48.2 °F 46% 30.29 in 11.0 mi SSE 16.1 mph 31.1 mph N/A   Partly Cloudy
1:27 PM 69.8 °F 48.2 °F 46% 30.29 in 10.0 mi SE 19.6 mph 31.1 mph N/A   Partly Cloudy
1:49 PM 69.8 °F 41.0 °F 35% 30.28 in 12.0 mi South 17.3 mph 26.5 mph N/A   Partly Cloudy
1:56 PM 70.0 °F 46.2 °F 43% 30.28 in 12.0 mi SE 13.8 mph 29.9 mph N/A   Partly Cloudy
2:16 PM 66.2 °F 51.8 °F 60% 30.28 in 11.0 mi NNW 13.8 mph 25.3 mph N/A   Scattered Clouds
2:18 PM 66.2 °F 51.8 °F 60% 30.28 in 10.0 mi NNW 12.7 mph 25.3 mph N/A   Scattered Clouds
2:21 PM 66.2 °F 50.0 °F 56% 30.28 in 10.0 mi SE 12.7 mph 25.3 mph N/A   Mostly Cloudy
2:22 PM 66.2 °F 48.2 °F 52% 30.28 in 10.0 mi SSE 12.7 mph 25.3 mph N/A   Mostly Cloudy
2:39 PM 68.0 °F 50.0 °F 52% 30.27 in 12.0 mi South 19.6 mph 33.4 mph N/A   Scattered Clouds
2:41 PM 68.0 °F 48.2 °F 49% 30.27 in 12.0 mi SE 19.6 mph 33.4 mph N/A   Partly Cloudy
2:43 PM 68.0 °F 48.2 °F 49% 30.27 in 12.0 mi SE 12.7 mph 29.9 mph N/A   Partly Cloudy
2:46 PM 68.0 °F 46.4 °F 46% 30.27 in 12.0 mi South 19.6 mph 31.1 mph N/A   Partly Cloudy
2:47 PM 68.0 °F 46.4 °F 46% 30.28 in 12.0 mi South 17.3 mph 31.1 mph N/A   Partly Cloudy
2:49 PM 68.0 °F 46.4 °F 46% 30.27 in 12.0 mi SE 18.4 mph 31.1 mph N/A   Partly Cloudy
2:56 PM 70.0 °F 45.7 °F 42% 30.27 in 12.0 mi SE 19.6 mph 36.8 mph N/A   Partly Cloudy
3:37 PM 62.6 °F 51.8 °F 68% 30.28 in 12.0 mi South 17.3 mph 33.4 mph N/A   Clear
3:56 PM 65.1 °F 50.7 °F 60% 30.27 in 12.0 mi SSE 18.4 mph 27.6 mph N/A   Clear
4:56 PM 62.1 °F 50.5 °F 66% 30.28 in 12.0 mi South 16.1 mph 25.3 mph N/A   Clear
4:58 PM 62.6 °F 50.0 °F 63% 30.28 in 12.0 mi South 11.5 mph 25.3 mph N/A   Clear
5:23 PM 60.8 °F 50.0 °F 68% 30.28 in 12.0 mi SSW 17.3 mph 27.6 mph N/A   Partly Cloudy
5:56 PM 59.0 °F 49.6 °F 71% 30.29 in 12.0 mi SSE 15.0 mph 21.9 mph N/A   Scattered Clouds
6:11 PM 59.0 °F 50.0 °F 72% 30.29 in 12.0 mi South 9.2 mph 19.6 mph N/A   Mostly Cloudy
6:17 PM 59.0 °F 48.2 °F 67% 30.29 in 12.0 mi South 15.0 mph 19.6 mph N/A   Scattered Clouds
6:56 PM 57.7 °F 45.3 °F 63% 30.29 in 12.0 mi ESE 2.3 mph - N/A   Clear
7:56 PM 56.7 °F 48.0 °F 73% 30.30 in 12.0 mi SE 6.9 mph 19.6 mph N/A   Partly Cloudy
8:56 PM 55.8 °F 46.6 °F 71% 30.32 in 12.0 mi SE 11.5 mph 27.6 mph N/A   Clear
9:56 PM 53.4 °F 46.6 °F 78% 30.32 in 1.9 mi NE 3.5 mph - N/A   Clear
10:06 PM 53.6 °F 46.4 °F 77% 30.31 in 5.0 mi SE 3.5 mph - N/A   Clear
10:56 PM 51.4 °F 43.3 °F 74% 30.31 in 12.0 mi North 2.3 mph - N/A   Clear
11:56 PM 50.9 °F 44.1 °F 77% 30.31 in 12.0 mi SE 5.8 mph - N/A   Clear